,,PA_Meas_PMT16A,,PR_Meas_QMR101_102,,RH_Meas_QMH101,,SR_Meas_QMS101,,TA_Meas_QMH101,,GenWind,,GenWind,
time,status,PA,status,PR,status,RH,status,SR,status,TA,status,DirAvg,status,SpdAvg,
2015-02-25, 07:15:04,VALID,917.455,VALID,0,VALID,98.647,VALID,65.6465,VALID,18.1055,VALID,162,VALID,1.12617,
2015-02-25, 07:16:04,VALID,917.447,VALID,0,VALID,98.6622,VALID,68.3326,VALID,18.125,VALID,148,VALID,1.16641,
2015-02-25, 07:17:04,VALID,917.445,VALID,0,VALID,98.6546,VALID,70.9112,VALID,18.1835,VALID,153,VALID,1.10742,
2015-02-25, 07:18:04,VALID,917.404,VALID,0,VALID,98.6622,VALID,73.7046,VALID,18.164,VALID,153,VALID,1.3125,
2015-02-25, 07:19:04,VALID,917.418,VALID,0,VALID,98.6165,VALID,76.2832,VALID,18.1821,VALID,167,VALID,0.979297,
2015-02-25, 07:20:04,VALID,917.422,VALID,0,VALID,98.6241,VALID,79.399,VALID,18.242,VALID,169,VALID,1.32734,
2015-02-25, 07:21:04,VALID,917.39,VALID,0,VALID,98.5555,VALID,82.085,VALID,18.242,VALID,149,VALID,1.46406,
2015-02-25, 07:22:04,VALID,917.366,VALID,0,VALID,98.5479,VALID,85.0934,VALID,18.2601,VALID,141,VALID,1.17461,
2015-02-25, 07:23:04,VALID,917.415,VALID,0,VALID,98.5022,VALID,87.7794,VALID,18.3185,VALID,157,VALID,0.9,
2015-02-25, 07:24:04,VALID,917.404,VALID,0,VALID,98.464,VALID,90.2506,VALID,18.3589,VALID,152,VALID,1.16875,
2015-02-25, 07:25:04,VALID,917.431,VALID,0,VALID,98.4031,VALID,93.5812,VALID,18.377,VALID,150,VALID,0.084375,
2015-02-25, 07:26:04,VALID,917.423,VALID,0,VALID,98.3497,VALID,94.7631,VALID,18.4355,VALID,132,VALID,0,
2015-02-25, 07:27:04,VALID,917.464,VALID,0,VALID,98.2735,VALID,94.2259,VALID,18.4745,VALID,128,VALID,1.43906,
2015-02-25, 07:28:04,VALID,917.475,VALID,0,VALID,98.1743,VALID,97.664,VALID,18.533,VALID,133,VALID,1.27813,
2015-02-25, 07:29:04,VALID,917.474,VALID,0,VALID,97.9914,VALID,100.243,VALID,18.5914,VALID,136,VALID,1.21523,
2015-02-25, 07:30:04,VALID,917.482,VALID,0,VALID,97.8237,VALID,103.681,VALID,18.6708,VALID,132,VALID,0.992969,
2015-02-25, 07:31:04,VALID,917.498,VALID,0,VALID,97.6255,VALID,110.235,VALID,18.7488,VALID,141,VALID,0.885156,
2015-02-25, 07:32:04,VALID,917.479,VALID,0,VALID,97.4425,VALID,113.136,VALID,18.8073,VALID,126,VALID,1.37422,
2015-02-25, 07:33:04,VALID,917.533,VALID,0,VALID,97.1986,VALID,116.359,VALID,18.8449,VALID,134,VALID,1.41211,
2015-02-25, 07:34:04,VALID,917.524,VALID,0,VALID,96.9165,VALID,120.012,VALID,18.9034,VALID,135,VALID,1.4625,
2015-02-25, 07:35:04,VALID,917.517,VALID,0,VALID,96.6725,VALID,123.88,VALID,19.0008,VALID,124,VALID,1.45977,
2015-02-25, 07:36:04,VALID,917.554,VALID,0,VALID,96.4057,VALID,127.533,VALID,19.1388,VALID,113,VALID,0.724219,
2015-02-25, 07:37:04,VALID,917.552,VALID,0,VALID,96.177,VALID,128.392,VALID,19.2334,VALID,99,VALID,0.428906,
2015-02-25, 07:38:04,VALID,917.55,VALID,0,VALID,95.8568,VALID,132.582,VALID,19.3338,VALID,99,VALID,0.891406,
2015-02-25, 07:39:04,VALID,917.525,VALID,0,VALID,95.4223,VALID,137.417,VALID,19.4313,VALID,101,VALID,0.603516,
2015-02-25, 07:40:04,VALID,917.536,VALID,0,VALID,95.0716,VALID,140.748,VALID,19.5288,VALID,109,VALID,0.602344,
2015-02-25, 07:41:04,VALID,917.539,VALID,0,VALID,94.881,VALID,143.864,VALID,19.6248,VALID,99,VALID,0,
2015-02-25, 07:42:04,VALID,917.528,VALID,0,VALID,94.4313,VALID,147.194,VALID,19.7433,VALID,99,VALID,0,
2015-02-25, 07:43:04,VALID,917.588,VALID,0,VALID,94.0653,VALID,150.095,VALID,19.8603,VALID,99,VALID,0,
2015-02-25, 07:44:04,VALID,917.577,VALID,0,VALID,93.6079,VALID,152.889,VALID,19.9773,VALID,99,VALID,0,
2015-02-25, 07:45:04,VALID,917.619,VALID,0,VALID,91.4734,VALID,155.897,VALID,20.0358,VALID,99,VALID,0,
2015-02-25, 07:46:04,VALID,917.61,VALID,0,VALID,90.9245,VALID,158.905,VALID,20.0553,VALID,99,VALID,0,
2015-02-25, 07:47:04,VALID,917.614,VALID,0,VALID,90.9092,VALID,161.269,VALID,20.0944,VALID,99,VALID,0,
2015-02-25, 07:48:04,VALID,917.611,VALID,0,VALID,91.2218,VALID,164.492,VALID,20.1318,VALID,99,VALID,0,
2015-02-25, 07:49:04,VALID,917.611,VALID,0,VALID,91.5877,VALID,167.931,VALID,20.1903,VALID,99,VALID,0,
2015-02-25, 07:50:04,VALID,917.628,VALID,0,VALID,91.6716,VALID,171.691,VALID,20.2684,VALID,99,VALID,0,
2015-02-25, 07:51:04,VALID,917.632,VALID,0,VALID,90.8711,VALID,174.807,VALID,20.3659,VALID,121,VALID,0,
2015-02-25, 07:52:04,VALID,917.648,VALID,0,VALID,89.3769,VALID,178.245,VALID,20.4439,VALID,137,VALID,0,
2015-02-25, 07:53:04,VALID,917.653,VALID,0,VALID,88.6984,VALID,181.468,VALID,20.4634,VALID,132,VALID,0,
2015-02-25, 07:54:04,VALID,917.656,VALID,0,VALID,89.1635,VALID,183.939,VALID,20.5594,VALID,140,VALID,0,
2015-02-25, 07:55:04,VALID,917.631,VALID,0,VALID,87.7989,VALID,187.592,VALID,20.6194,VALID,140,VALID,0,
2015-02-25, 07:56:04,VALID,917.623,VALID,0,VALID,87.6998,VALID,191.353,VALID,20.6975,VALID,140,VALID,0,
2015-02-25, 07:57:04,VALID,917.628,VALID,0,VALID,87.2729,VALID,194.898,VALID,20.6959,VALID,141,VALID,0,
2015-02-25, 07:58:04,VALID,917.641,VALID,0,VALID,86.541,VALID,199.196,VALID,20.7739,VALID,131,VALID,0,
2015-02-25, 07:59:04,VALID,917.617,VALID,0,VALID,86.5639,VALID,202.634,VALID,20.834,VALID,129,VALID,0,
2015-02-25, 08:00:04,VALID,917.645,VALID,0,VALID,86.1141,VALID,206.394,VALID,20.8519,VALID,145,VALID,0,
2015-02-25, 08:01:04,VALID,917.601,VALID,0,VALID,85.5805,VALID,210.262,VALID,20.7349,VALID,113,VALID,0,
2015-02-25, 08:02:04,VALID,917.599,VALID,0,VALID,86.5334,VALID,214.345,VALID,20.7154,VALID,133,VALID,0,
2015-02-25, 08:03:04,VALID,917.623,VALID,0,VALID,87.25,VALID,217.783,VALID,20.7739,VALID,149,VALID,0,
2015-02-25, 08:04:04,VALID,917.63,VALID,0,VALID,86.6325,VALID,223.263,VALID,20.8129,VALID,139,VALID,0,
2015-02-25, 08:05:04,VALID,917.634,VALID,0,VALID,87.0899,VALID,227.668,VALID,20.9089,VALID,115,VALID,0,
2015-02-25, 08:06:04,VALID,917.678,VALID,0,VALID,85.9921,VALID,230.784,VALID,21.047,VALID,157,VALID,0,
2015-02-25, 08:07:04,VALID,917.661,VALID,0,VALID,85.2298,VALID,234.329,VALID,21.1461,VALID,161,VALID,0,
2015-02-25, 08:08:04,VALID,917.693,VALID,0,VALID,84.5818,VALID,238.627,VALID,21.1657,VALID,145,VALID,0,
2015-02-25, 08:09:04,VALID,917.702,VALID,0,VALID,84.7724,VALID,241.205,VALID,21.1461,VALID,165,VALID,0,
2015-02-25, 08:10:04,VALID,917.689,VALID,0,VALID,85.5042,VALID,243.139,VALID,21.2242,VALID,132,VALID,0,
2015-02-25, 08:11:04,VALID,917.708,VALID,0,VALID,84.78,VALID,245.61,VALID,21.2437,VALID,171,VALID,0,
2015-02-25, 08:12:04,VALID,917.735,VALID,0,VALID,84.315,VALID,249.801,VALID,21.2047,VALID,149,VALID,1.28789,
2015-02-25, 08:13:04,VALID,917.756,VALID,0,VALID,84.5208,VALID,254.421,VALID,21.0665,VALID,156,VALID,1.48008,
2015-02-25, 08:14:04,VALID,917.761,VALID,0,VALID,85.2908,VALID,260.76,VALID,21.0291,VALID,156,VALID,0.253125,
2015-02-25, 08:15:04,VALID,917.772,VALID,0,VALID,85.2374,VALID,265.917,VALID,21.008,VALID,143,VALID,1.67539,
2015-02-25, 08:16:04,VALID,917.764,VALID,0,VALID,85.428,VALID,270.859,VALID,21.0275,VALID,141,VALID,2.17617,
2015-02-25, 08:17:04,VALID,917.798,VALID,0,VALID,86.0684,VALID,276.661,VALID,20.9885,VALID,165,VALID,1.29805,
2015-02-25, 08:18:04,VALID,917.827,VALID,0,VALID,86.0531,VALID,279.992,VALID,20.9869,VALID,134,VALID,1.6418,
2015-02-25, 08:19:04,VALID,917.822,VALID,0,VALID,85.9388,VALID,283.43,VALID,21.008,VALID,144,VALID,1.92461,
2015-02-25, 08:20:04,VALID,917.838,VALID,0,VALID,86.7468,VALID,287.835,VALID,21.1055,VALID,162,VALID,0.894141,
2015-02-25, 08:21:04,VALID,917.872,VALID,0,VALID,85.7634,VALID,290.199,VALID,21.2421,VALID,163,VALID,1.0043,
2015-02-25, 08:22:04,VALID,917.844,VALID,0,VALID,85.1078,VALID,294.496,VALID,21.3591,VALID,156,VALID,1.30508,
2015-02-25, 08:23:04,VALID,917.87,VALID,0,VALID,84.3607,VALID,298.901,VALID,21.4372,VALID,159,VALID,1.12227,
2015-02-25, 08:24:04,VALID,917.882,VALID,0,VALID,83.789,VALID,303.199,VALID,21.4567,VALID,171,VALID,0.477344,
2015-02-25, 08:25:04,VALID,917.889,VALID,0,VALID,84.0405,VALID,306.315,VALID,21.4957,VALID,149,VALID,0.305469,
2015-02-25, 08:26:04,VALID,917.9,VALID,0,VALID,83.7432,VALID,309.538,VALID,21.4762,VALID,157,VALID,0.389453,
2015-02-25, 08:27:04,VALID,917.918,VALID,0,VALID,84.9249,VALID,314.91,VALID,21.4746,VALID,141,VALID,0,
2015-02-25, 08:28:04,VALID,917.95,VALID,0,VALID,84.3302,VALID,319.315,VALID,21.4762,VALID,135,VALID,0.961719,
2015-02-25, 08:29:04,VALID,917.97,VALID,0,VALID,84.5666,VALID,325.654,VALID,21.4746,VALID,146,VALID,0.871094,
2015-02-25, 08:30:04,VALID,917.948,VALID,0,VALID,84.7953,VALID,330.167,VALID,21.5526,VALID,149,VALID,0.0785156,
2015-02-25, 08:31:04,VALID,917.935,VALID,0,VALID,85.2298,VALID,334.142,VALID,21.5737,VALID,141,VALID,0.478125,
2015-02-25, 08:32:04,VALID,917.937,VALID,0,VALID,85.0926,VALID,337.58,VALID,21.7298,VALID,150,VALID,0.00429688,
2015-02-25, 08:33:04,VALID,917.952,VALID,0,VALID,83.4078,VALID,341.985,VALID,21.7883,VALID,166,VALID,0.392188,
2015-02-25, 08:34:04,VALID,917.957,VALID,0,VALID,83.4459,VALID,346.283,VALID,21.8452,VALID,130,VALID,0.398828,
2015-02-25, 08:35:04,VALID,917.973,VALID,0,VALID,83.3316,VALID,350.473,VALID,22.0013,VALID,143,VALID,0.775781,
2015-02-25, 08:36:04,VALID,917.936,VALID,0,VALID,83.606,VALID,354.878,VALID,22.1769,VALID,146,VALID,0,
2015-02-25, 08:37:04,VALID,917.972,VALID,0,VALID,83.2934,VALID,360.143,VALID,22.3916,VALID,127,VALID,0.176953,
2015-02-25, 08:38:04,VALID,917.955,VALID,0,VALID,81.2504,VALID,365.407,VALID,22.4501,VALID,168,VALID,0.630469,
2015-02-25, 08:39:04,VALID,917.984,VALID,0,VALID,80.0764,VALID,369.383,VALID,22.4696,VALID,169,VALID,1.14297,
2015-02-25, 08:40:04,VALID,918.015,VALID,0,VALID,81.1208,VALID,373.788,VALID,22.5477,VALID,138,VALID,0.625781,
2015-02-25, 08:41:04,VALID,917.996,VALID,0,VALID,80.4575,VALID,376.904,VALID,22.5867,VALID,142,VALID,0.341406,
2015-02-25, 08:42:04,VALID,918.002,VALID,0,VALID,81.136,VALID,380.664,VALID,22.7038,VALID,150,VALID,0.0503906,
2015-02-25, 08:43:04,VALID,918.003,VALID,0,VALID,80.0459,VALID,384.317,VALID,22.7233,VALID,158,VALID,0.948438,
2015-02-25, 08:44:04,VALID,918.017,VALID,0,VALID,80.2746,VALID,389.152,VALID,22.7021,VALID,142,VALID,0.399609,
2015-02-25, 08:45:04,VALID,918.053,VALID,0,VALID,80.0687,VALID,391.623,VALID,22.7623,VALID,160,VALID,0,
2015-02-25, 08:46:04,VALID,918.02,VALID,0,VALID,79.7943,VALID,395.813,VALID,22.8387,VALID,147,VALID,0.0605469,
2015-02-25, 08:47:04,VALID,918.06,VALID,0,VALID,79.6113,VALID,400.218,VALID,22.9965,VALID,156,VALID,0,
2015-02-25, 08:48:04,VALID,918.044,VALID,0,VALID,79.962,VALID,403.442,VALID,22.977,VALID,139,VALID,1.16289,
2015-02-25, 08:49:04,VALID,918.084,VALID,0,VALID,78.9786,VALID,408.384,VALID,22.977,VALID,155,VALID,0.525,
2015-02-25, 08:50:04,VALID,918.105,VALID,0,VALID,79.1387,VALID,412.359,VALID,22.9965,VALID,163,VALID,0.730859,
2015-02-25, 08:51:04,VALID,918.158,VALID,0,VALID,78.6203,VALID,414.401,VALID,23.0356,VALID,168,VALID,1.68008,
2015-02-25, 08:52:04,VALID,918.154,VALID,0,VALID,77.5073,VALID,417.731,VALID,22.9948,VALID,137,VALID,1.26328,
2015-02-25, 08:53:04,VALID,918.173,VALID,0,VALID,79.0091,VALID,419.773,VALID,23.0746,VALID,178,VALID,0.2625,
2015-02-25, 08:54:04,VALID,918.185,VALID,0,VALID,77.9952,VALID,423.318,VALID,23.2112,VALID,182,VALID,0,
2015-02-25, 08:55:04,VALID,918.204,VALID,0,VALID,78.0104,VALID,427.508,VALID,23.4259,VALID,182,VALID,0,
2015-02-25, 08:56:04,VALID,918.204,VALID,0,VALID,77.2938,VALID,430.732,VALID,23.5998,VALID,168,VALID,0.518359,
2015-02-25, 08:57:04,VALID,918.219,VALID,0,VALID,76.1122,VALID,433.31,VALID,23.6406,VALID,147,VALID,0,
2015-02-25, 08:58:04,VALID,918.193,VALID,0,VALID,76.7221,VALID,435.029,VALID,23.6016,VALID,150,VALID,0,
2015-02-25, 08:59:04,VALID,918.219,VALID,0,VALID,75.7539,VALID,438.79,VALID,23.7169,VALID,166,VALID,0.000390625,
2015-02-25, 09:00:04,VALID,918.234,VALID,0,VALID,75.1821,VALID,441.691,VALID,23.7968,VALID,177,VALID,0,
2015-02-25, 09:01:04,VALID,918.234,VALID,0,VALID,76.3638,VALID,445.236,VALID,23.8926,VALID,145,VALID,0.0441406,
2015-02-25, 09:02:04,VALID,918.225,VALID,0,VALID,75.1059,VALID,447.6,VALID,23.9121,VALID,168,VALID,0.377344,
2015-02-25, 09:03:04,VALID,918.266,VALID,0,VALID,74.1453,VALID,451.038,VALID,23.9707,VALID,160,VALID,0.55625,
2015-02-25, 09:04:04,VALID,918.239,VALID,0,VALID,73.9776,VALID,453.509,VALID,23.9707,VALID,146,VALID,2.07383,
2015-02-25, 09:05:04,VALID,918.269,VALID,0,VALID,74.801,VALID,453.079,VALID,23.8926,VALID,149,VALID,0.350391,
2015-02-25, 09:06:04,VALID,918.306,VALID,0,VALID,74.5265,VALID,456.517,VALID,24.0488,VALID,165,VALID,0,
2015-02-25, 09:07:04,VALID,918.296,VALID,0,VALID,73.1162,VALID,461.675,VALID,24.1659,VALID,144,VALID,0.851953,
2015-02-25, 09:08:04,VALID,918.287,VALID,0,VALID,72.7274,VALID,464.683,VALID,24.0097,VALID,157,VALID,1.3793,
2015-02-25, 09:09:04,VALID,918.323,VALID,0,VALID,75.5938,VALID,470.162,VALID,24.0292,VALID,180,VALID,0,
2015-02-25, 09:10:04,VALID,918.319,VALID,0,VALID,74.4045,VALID,474.245,VALID,24.1464,VALID,173,VALID,0,
2015-02-25, 09:11:04,VALID,918.364,VALID,0,VALID,74.1301,VALID,478.113,VALID,24.3026,VALID,146,VALID,0,
2015-02-25, 09:12:04,VALID,918.337,VALID,0,VALID,72.3767,VALID,482.518,VALID,24.3806,VALID,163,VALID,1.1332,
2015-02-25, 09:13:04,VALID,918.381,VALID,0,VALID,72.5978,VALID,485.634,VALID,24.283,VALID,167,VALID,0,
2015-02-25, 09:14:04,VALID,918.359,VALID,0,VALID,72.5825,VALID,487.461,VALID,24.4002,VALID,183,VALID,1.57305,
2015-02-25, 09:15:04,VALID,918.398,VALID,0,VALID,72.2166,VALID,489.609,VALID,24.4569,VALID,162,VALID,0.84375,
2015-02-25, 09:16:04,VALID,918.393,VALID,0,VALID,72.3386,VALID,494.981,VALID,24.5368,VALID,170,VALID,0,
2015-02-25, 09:17:04,VALID,918.41,VALID,0,VALID,72.1328,VALID,500.891,VALID,24.7321,VALID,158,VALID,0,
2015-02-25, 09:18:04,VALID,918.424,VALID,0,VALID,70.6691,VALID,505.725,VALID,24.7888,VALID,132,VALID,1.27227,
2015-02-25, 09:19:04,VALID,918.45,VALID,0,VALID,72.0032,VALID,507.23,VALID,24.8278,VALID,174,VALID,0,
2015-02-25, 09:20:04,VALID,918.485,VALID,0,VALID,71.7287,VALID,509.808,VALID,25.0445,VALID,188,VALID,0.358203,
2015-02-25, 09:21:04,VALID,918.438,VALID,0,VALID,68.4811,VALID,514.428,VALID,25.1031,VALID,137,VALID,0.0078125,
2015-02-25, 09:22:04,VALID,918.444,VALID,0,VALID,66.6287,VALID,519.585,VALID,25.0836,VALID,149,VALID,1.32734,
2015-02-25, 09:23:04,VALID,918.484,VALID,0,VALID,71.561,VALID,520.552,VALID,24.8707,VALID,147,VALID,0.815625,
2015-02-25, 09:24:04,VALID,918.451,VALID,0,VALID,69.9143,VALID,525.065,VALID,24.7126,VALID,156,VALID,1.1418,
2015-02-25, 09:25:04,VALID,918.449,VALID,0,VALID,71.6525,VALID,530.867,VALID,24.6735,VALID,169,VALID,1.61797,
2015-02-25, 09:26:04,VALID,918.43,VALID,0,VALID,70.9435,VALID,538.28,VALID,24.7516,VALID,182,VALID,0,
2015-02-25, 09:27:04,VALID,918.411,VALID,0,VALID,70.0897,VALID,542.9,VALID,24.8492,VALID,108,VALID,0.794531,
2015-02-25, 09:28:04,VALID,918.425,VALID,0,VALID,71.744,VALID,547.198,VALID,24.7516,VALID,115,VALID,0,
2015-02-25, 09:29:04,VALID,918.439,VALID,0,VALID,70.1812,VALID,551.281,VALID,24.7516,VALID,152,VALID,1.4207,
2015-02-25, 09:30:04,VALID,918.446,VALID,0,VALID,69.9372,VALID,556.33,VALID,24.8297,VALID,147,VALID,0,
2015-02-25, 09:31:04,VALID,918.483,VALID,0,VALID,70.4175,VALID,561.595,VALID,25.1031,VALID,92,VALID,1.56758,
2015-02-25, 09:32:04,VALID,918.483,VALID,0,VALID,69.03,VALID,565.14,VALID,25.2398,VALID,99,VALID,0.806641,
2015-02-25, 09:33:04,VALID,918.47,VALID,0,VALID,68.5498,VALID,570.835,VALID,25.2203,VALID,115,VALID,0.652734,
2015-02-25, 09:34:04,VALID,918.445,VALID,0,VALID,69.4798,VALID,575.992,VALID,25.1812,VALID,83,VALID,1.5582,
2015-02-25, 09:35:04,VALID,918.448,VALID,0,VALID,69.6704,VALID,578.571,VALID,25.3746,VALID,76,VALID,0.607813,
2015-02-25, 09:36:04,VALID,918.442,VALID,0,VALID,69.1749,VALID,584.802,VALID,25.4351,VALID,138,VALID,0.395703,
2015-02-25, 09:37:04,VALID,918.419,VALID,0,VALID,67.1928,VALID,586.951,VALID,25.4136,VALID,162,VALID,1.54336,
2015-02-25, 09:38:04,VALID,918.411,VALID,0,VALID,66.9946,VALID,591.141,VALID,25.355,VALID,107,VALID,1.45859,
2015-02-25, 09:39:04,VALID,918.399,VALID,0,VALID,68.0466,VALID,594.364,VALID,25.4527,VALID,106,VALID,0.990234,
2015-02-25, 09:40:04,VALID,918.401,VALID,0,VALID,69.8152,VALID,599.199,VALID,25.6284,VALID,141,VALID,0.0195313,
2015-02-25, 09:41:04,VALID,918.355,VALID,0,VALID,66.7964,VALID,602.96,VALID,25.7085,VALID,140,VALID,0.281641,
2015-02-25, 09:42:04,VALID,918.36,VALID,0,VALID,68.9004,VALID,604.464,VALID,25.7651,VALID,137,VALID,0.389062,
2015-02-25, 09:43:04,VALID,918.378,VALID,0,VALID,67.7112,VALID,606.935,VALID,25.5503,VALID,132,VALID,0.61875,
2015-02-25, 09:44:04,VALID,918.401,VALID,0,VALID,68.3439,VALID,609.514,VALID,25.4331,VALID,134,VALID,0.921484,
2015-02-25, 09:45:04,VALID,918.365,VALID,0,VALID,69.8076,VALID,597.91,VALID,25.4546,VALID,117,VALID,1.16172,
2015-02-25, 09:46:04,VALID,918.368,VALID,0,VALID,69.0148,VALID,593.827,VALID,25.6284,VALID,58,VALID,0.0417969,
2015-02-25, 09:47:04,VALID,918.387,VALID,0,VALID,67.3224,VALID,588.778,VALID,25.7456,VALID,116,VALID,2.15625,
2015-02-25, 09:48:04,VALID,918.335,VALID,0,VALID,68.2448,VALID,548.809,VALID,25.4722,VALID,111,VALID,0.232031,
2015-02-25, 09:49:04,VALID,918.363,VALID,0,VALID,67.2614,VALID,567.397,VALID,25.2965,VALID,129,VALID,0.365625,
2015-02-25, 09:50:04,VALID,918.348,VALID,0,VALID,69.3502,VALID,498.849,VALID,25.3355,VALID,131,VALID,0,
2015-02-25, 09:51:04,VALID,918.366,VALID,0,VALID,68.3134,VALID,505.833,VALID,25.4917,VALID,172,VALID,1.24258,
2015-02-25, 09:52:04,VALID,918.327,VALID,0,VALID,66.7125,VALID,558.049,VALID,25.5894,VALID,178,VALID,0,
2015-02-25, 09:53:04,VALID,918.343,VALID,0,VALID,67.8484,VALID,582.868,VALID,25.8628,VALID,109,VALID,0.710938,
2015-02-25, 09:54:04,VALID,918.331,VALID,0,VALID,65.2336,VALID,602.96,VALID,26.1753,VALID,78,VALID,0.812109,
2015-02-25, 09:55:04,VALID,918.355,VALID,0,VALID,68.0771,VALID,599.414,VALID,26.1362,VALID,108,VALID,1.11172,
2015-02-25, 09:56:04,VALID,918.331,VALID,0,VALID,66.3771,VALID,613.059,VALID,25.9995,VALID,145,VALID,0.145703,
2015-02-25, 09:57:04,VALID,918.331,VALID,0,VALID,65.1726,VALID,617.572,VALID,26.019,VALID,57,VALID,0.692578,
2015-02-25, 09:58:04,VALID,918.333,VALID,0,VALID,67.5511,VALID,615.315,VALID,26.2925,VALID,54,VALID,0,
2015-02-25, 09:59:04,VALID,918.336,VALID,0,VALID,65.0582,VALID,628.423,VALID,26.5269,VALID,322,VALID,0,
2015-02-25, 10:00:04,VALID,918.328,VALID,0,VALID,64.6085,VALID,634.87,VALID,26.5464,VALID,210,VALID,0,
2015-02-25, 10:01:04,VALID,918.318,VALID,0,VALID,64.4636,VALID,640.457,VALID,26.6832,VALID,95,VALID,0.204297,
2015-02-25, 10:02:04,VALID,918.322,VALID,0,VALID,65.1802,VALID,641.316,VALID,26.7593,VALID,95,VALID,0,
2015-02-25, 10:03:04,VALID,918.32,VALID,0,VALID,63.8232,VALID,650.986,VALID,27.0132,VALID,137,VALID,0,
2015-02-25, 10:04:04,VALID,918.343,VALID,0,VALID,60.4079,VALID,647.87,VALID,27.1716,VALID,109,VALID,0.0117188,
2015-02-25, 10:05:04,VALID,918.323,VALID,0,VALID,59.3254,VALID,637.341,VALID,27.15,VALID,164,VALID,0,
2015-02-25, 10:06:04,VALID,918.325,VALID,0,VALID,62.3062,VALID,644.647,VALID,27.1305,VALID,146,VALID,0.383594,
2015-02-25, 10:07:04,VALID,918.349,VALID,0,VALID,62.5044,VALID,646.688,VALID,27.113,VALID,141,VALID,0.435937,
2015-02-25, 10:08:04,VALID,918.353,VALID,0,VALID,60.4689,VALID,653.135,VALID,26.9762,VALID,168,VALID,0.440625,
2015-02-25, 10:09:04,VALID,918.349,VALID,0,VALID,60.812,VALID,661.623,VALID,26.9762,VALID,175,VALID,0,
2015-02-25, 10:10:04,VALID,918.342,VALID,0,VALID,60.2326,VALID,664.631,VALID,26.9958,VALID,175,VALID,0,
2015-02-25, 10:11:04,VALID,918.344,VALID,0,VALID,60.3622,VALID,670.755,VALID,27.1911,VALID,171,VALID,0,
2015-02-25, 10:12:04,VALID,918.332,VALID,0,VALID,60.2479,VALID,668.499,VALID,27.4256,VALID,177,VALID,0,
2015-02-25, 10:13:04,VALID,918.334,VALID,0,VALID,60.5909,VALID,678.921,VALID,27.5645,VALID,197,VALID,0.864453,
2015-02-25, 10:14:04,VALID,918.356,VALID,0,VALID,60.5223,VALID,714.376,VALID,27.6601,VALID,180,VALID,0,
2015-02-25, 10:15:04,VALID,918.353,VALID,0,VALID,58.8756,VALID,715.451,VALID,27.7578,VALID,178,VALID,0,
2015-02-25, 10:16:04,VALID,918.365,VALID,0,VALID,57.3433,VALID,715.558,VALID,27.8751,VALID,187,VALID,1.96641,
2015-02-25, 10:17:04,VALID,918.339,VALID,0,VALID,57.7855,VALID,708.682,VALID,27.7166,VALID,181,VALID,0.380469,
2015-02-25, 10:18:04,VALID,918.314,VALID,0,VALID,58.3573,VALID,644.539,VALID,27.5212,VALID,178,VALID,0.205078,
2015-02-25, 10:19:04,VALID,918.343,VALID,0,VALID,58.2048,VALID,703.847,VALID,27.5212,VALID,218,VALID,0.664844,
2015-02-25, 10:20:04,VALID,918.345,VALID,0,VALID,59.8133,VALID,669.143,VALID,27.3865,VALID,211,VALID,0.00820312,
2015-02-25, 10:21:04,VALID,918.314,VALID,0,VALID,59.2263,VALID,370.994,VALID,27.4647,VALID,194,VALID,0.425,
2015-02-25, 10:22:04,VALID,918.342,VALID,0,VALID,60.5985,VALID,558.694,VALID,27.4626,VALID,188,VALID,1.44922,
2015-02-25, 10:23:04,VALID,918.348,VALID,0,VALID,59.6151,VALID,579.967,VALID,27.4626,VALID,223,VALID,0,
2015-02-25, 10:24:04,VALID,918.348,VALID,0,VALID,62.0394,VALID,474.782,VALID,27.6015,VALID,151,VALID,0,
2015-02-25, 10:25:04,VALID,918.309,VALID,0,VALID,55.4375,VALID,508.089,VALID,27.6189,VALID,100,VALID,0.141797,
2015-02-25, 10:26:04,VALID,918.297,VALID,0,VALID,54.4388,VALID,365.73,VALID,27.4061,VALID,100,VALID,0,
2015-02-25, 10:27:04,VALID,918.272,VALID,0,VALID,56.5276,VALID,383.457,VALID,27.1911,VALID,82,VALID,0.43125,
2015-02-25, 10:28:04,VALID,918.247,VALID,0,VALID,57.7779,VALID,838.256,VALID,27.15,VALID,43,VALID,1.61445,
2015-02-25, 10:29:04,VALID,918.244,VALID,0,VALID,58.5402,VALID,851.793,VALID,27.1521,VALID,41,VALID,1.64297,
2015-02-25, 10:30:04,VALID,918.271,VALID,0,VALID,56.7487,VALID,831.165,VALID,27.2888,VALID,58,VALID,2.44531,
2015-02-25, 10:31:04,VALID,918.27,VALID,0,VALID,57.816,VALID,709.756,VALID,27.2672,VALID,51,VALID,0.496875,
2015-02-25, 10:32:04,VALID,918.267,VALID,0,VALID,56.2913,VALID,485.419,VALID,27.3454,VALID,55,VALID,1.13008,
2015-02-25, 10:33:04,VALID,918.259,VALID,0,VALID,55.7195,VALID,466.724,VALID,27.2086,VALID,44,VALID,0,
2015-02-25, 10:34:04,VALID,918.237,VALID,0,VALID,56.3675,VALID,512.279,VALID,27.1891,VALID,33,VALID,0,
2015-02-25, 10:35:04,VALID,918.255,VALID,0,VALID,57.3433,VALID,509.164,VALID,27.1675,VALID,42,VALID,0.640625,
2015-02-25, 10:36:04,VALID,918.243,VALID,0,VALID,58.1743,VALID,668.069,VALID,27.1305,VALID,44,VALID,0.305859,
2015-02-25, 10:37:04,VALID,918.242,VALID,0,VALID,59.4703,VALID,559.876,VALID,27.0719,VALID,131,VALID,1.75312,
2015-02-25, 10:38:04,VALID,918.273,VALID,0,VALID,59.0662,VALID,721.467,VALID,26.8765,VALID,114,VALID,0.522656,
2015-02-25, 10:39:04,VALID,918.247,VALID,0,VALID,56.9927,VALID,853.62,VALID,26.9156,VALID,65,VALID,0.855859,
2015-02-25, 10:40:04,VALID,918.225,VALID,0,VALID,58.9519,VALID,830.842,VALID,26.9156,VALID,38,VALID,1.09297,
2015-02-25, 10:41:04,VALID,918.224,VALID,0,VALID,59.0205,VALID,821.817,VALID,27.0132,VALID,24,VALID,0.942969,
2015-02-25, 10:42:04,VALID,918.214,VALID,0,VALID,57.29,VALID,863.612,VALID,27.1695,VALID,16,VALID,0,
2015-02-25, 10:43:04,VALID,918.185,VALID,0,VALID,56.8021,VALID,870.918,VALID,27.4626,VALID,360,VALID,1.95352,
2015-02-25, 10:44:04,VALID,918.14,VALID,0,VALID,56.7258,VALID,868.232,VALID,27.4626,VALID,17,VALID,2.91602,
2015-02-25, 10:45:04,VALID,918.172,VALID,0,VALID,55.5976,VALID,683.648,VALID,27.3844,VALID,66,VALID,2.25703,
2015-02-25, 10:46:04,VALID,918.16,VALID,0,VALID,56.6725,VALID,784.643,VALID,27.2086,VALID,70,VALID,1.17148,
2015-02-25, 10:47:04,VALID,918.112,VALID,0,VALID,56.6496,VALID,342.093,VALID,27.1521,VALID,65,VALID,0,
2015-02-25, 10:48:04,VALID,918.093,VALID,0,VALID,58.22,VALID,302.662,VALID,27.1695,VALID,67,VALID,0.622266,
2015-02-25, 10:49:04,VALID,918.094,VALID,0,VALID,57.7855,VALID,337.795,VALID,27.0698,VALID,87,VALID,0.641406,
2015-02-25, 10:50:04,VALID,918.095,VALID,0,VALID,56.9088,VALID,444.484,VALID,26.9546,VALID,90,VALID,0.766016,
2015-02-25, 10:51:04,VALID,918.04,VALID,0,VALID,58.6469,VALID,694.177,VALID,26.9156,VALID,71,VALID,0.0335938,
2015-02-25, 10:52:04,VALID,918.014,VALID,0,VALID,58.2276,VALID,886.39,VALID,27.1305,VALID,48,VALID,0,
2015-02-25, 10:53:04,VALID,917.99,VALID,0,VALID,57.1451,VALID,934.953,VALID,27.3649,VALID,343,VALID,0.000390625,